SWA913 MWCR-KMCO

Flight info

Callsign SWA913
Flight time 1h 30m
Altitude 37000
Route RIKEL2 RIKEL DCT IKBIX Y183 PEAKY/N0443F380 DCT FERAL JOKRS4
Aircraft B737/M-SDE2E3FGHIRWXY/LB1

Departure

Time 2026-04-23 14:41
Airport Owen Roberts International Airport (MWCR)

Arrival

Time 2026-04-23 16:11
Airport Orlando International Airport (KMCO)
Time Latitude Longitude Altitude Speed Heading
2026-04-23 14:10 19.29532 -81.35731 14 ft 0 kts 346°
2026-04-23 14:33 19.29529 -81.35731 14 ft 2 kts 346°
2026-04-23 14:33 19.29513 -81.35726 14 ft 3 kts 346°
2026-04-23 14:33 19.29493 -81.35721 14 ft 3 kts 340°
2026-04-23 14:33 19.29474 -81.35712 16 ft 3 kts 329°
2026-04-23 14:34 19.29458 -81.35700 14 ft 3 kts 313°
2026-04-23 14:34 19.29451 -81.35692 14 ft 0 kts 306°
2026-04-23 14:37 19.29451 -81.35704 14 ft 3 kts 270°
2026-04-23 14:37 19.29445 -81.35750 14 ft 11 kts 257°
2026-04-23 14:37 19.29396 -81.35809 16 ft 11 kts 189°
2026-04-23 14:38 19.29317 -81.35799 13 ft 12 kts 176°
2026-04-23 14:38 19.29252 -81.35876 13 ft 17 kts 257°
2026-04-23 14:38 19.29221 -81.36006 15 ft 20 kts 256°
2026-04-23 14:38 19.29189 -81.36144 15 ft 19 kts 256°
2026-04-23 14:39 19.29157 -81.36278 15 ft 18 kts 256°
2026-04-23 14:39 19.29126 -81.36407 15 ft 18 kts 256°
2026-04-23 14:39 19.29097 -81.36532 16 ft 17 kts 256°
2026-04-23 14:39 19.29085 -81.36655 14 ft 17 kts 275°
2026-04-23 14:40 19.29065 -81.36751 15 ft 5 kts 177°
2026-04-23 14:40 19.29055 -81.36716 14 ft 6 kts 77°
2026-04-23 14:40 19.29078 -81.36636 15 ft 33 kts 75°
2026-04-23 14:40 19.29185 -81.36174 17 ft 95 kts 76°
2026-04-23 14:41 19.29386 -81.35323 15 ft 144 kts 76°
2026-04-23 14:41 19.29657 -81.34198 329 ft 147 kts 74°
2026-04-23 14:41 19.29942 -81.33132 639 ft 172 kts 69°
2026-04-23 14:41 19.30722 -81.32109 834 ft 194 kts 31°
2026-04-23 14:42 19.31992 -81.31427 1040 ft 215 kts 22°
2026-04-23 14:42 19.33532 -81.31140 1233 ft 236 kts
2026-04-23 14:42 19.35170 -81.30852 1773 ft 244 kts 22°
2026-04-23 14:42 19.36750 -81.30119 2516 ft 252 kts 26°
2026-04-23 14:43 19.38359 -81.29345 3406 ft 255 kts 26°
2026-04-23 14:43 19.40012 -81.28622 4257 ft 260 kts 24°
2026-04-23 14:43 19.41724 -81.27923 5073 ft 266 kts 22°
2026-04-23 14:43 19.43479 -81.27221 5872 ft 272 kts 22°
2026-04-23 14:44 19.45272 -81.26508 6704 ft 277 kts 22°
2026-04-23 14:44 19.47090 -81.25785 7551 ft 281 kts 21°
2026-04-23 14:44 19.48931 -81.25047 8359 ft 285 kts 22°
2026-04-23 14:44 19.50796 -81.24295 9120 ft 289 kts 21°
2026-04-23 14:45 19.52693 -81.23530 9869 ft 294 kts 21°
2026-04-23 14:45 19.54602 -81.22758 10556 ft 304 kts 21°
2026-04-23 14:45 19.56661 -81.21927 10723 ft 329 kts 21°
2026-04-23 14:45 19.58860 -81.21041 11072 ft 345 kts 20°
2026-04-23 14:46 19.61125 -81.20128 11717 ft 351 kts 20°
2026-04-23 14:46 19.63413 -81.19205 12533 ft 352 kts 20°
2026-04-23 14:46 19.65723 -81.18274 13186 ft 359 kts 19°
2026-04-23 14:46 19.68078 -81.17325 13766 ft 365 kts 19°
2026-04-23 14:47 19.70467 -81.16362 14462 ft 368 kts 19°
2026-04-23 14:47 19.72873 -81.15390 15151 ft 372 kts 19°
2026-04-23 14:47 19.75304 -81.14407 15793 ft 376 kts 19°
2026-04-23 14:47 19.77766 -81.13412 16429 ft 381 kts 19°
2026-04-23 14:48 19.80258 -81.12404 17083 ft 385 kts 18°
2026-04-23 14:48 19.82770 -81.11387 17715 ft 388 kts 18°
2026-04-23 14:48 19.85308 -81.10359 18298 ft 393 kts 18°
2026-04-23 14:48 19.87880 -81.09317 18860 ft 397 kts 18°
2026-04-23 14:49 19.90479 -81.08263 19427 ft 401 kts 18°
2026-04-23 14:49 19.93098 -81.07201 20001 ft 405 kts 18°
2026-04-23 14:49 19.95744 -81.06129 20531 ft 409 kts 18°
2026-04-23 14:49 19.98419 -81.05054 21026 ft 413 kts 15°
2026-04-23 14:50 20.01228 -81.04466 21363 ft 413 kts 359°
2026-04-23 14:50 20.04075 -81.04523 22090 ft 405 kts 352°
2026-04-23 14:50 20.06882 -81.04765 22679 ft 407 kts 351°
2026-04-23 14:50 20.09733 -81.05041 22944 ft 416 kts 351°
2026-04-23 14:51 20.12641 -81.05274 23362 ft 420 kts 352°
2026-04-23 14:51 20.15570 -81.05408 23900 ft 422 kts 354°
2026-04-23 14:51 20.18511 -81.05473 24358 ft 425 kts 354°
2026-04-23 14:51 20.21488 -81.05530 24718 ft 429 kts 354°
2026-04-23 14:52 20.24487 -81.05603 25069 ft 433 kts 353°
2026-04-23 14:52 20.27468 -81.05698 25462 ft 436 kts 353°
2026-04-23 14:52 20.30506 -81.05814 25870 ft 438 kts 352°
2026-04-23 14:52 20.33562 -81.05944 26239 ft 441 kts 352°
2026-04-23 14:53 20.36686 -81.06085 26577 ft 445 kts 352°
2026-04-23 14:53 20.39755 -81.06228 26920 ft 448 kts 352°
2026-04-23 14:53 20.42883 -81.06375 27289 ft 451 kts 352°
2026-04-23 14:53 20.46021 -81.06522 27636 ft 453 kts 352°
2026-04-23 14:54 20.49183 -81.06670 27950 ft 456 kts 352°
2026-04-23 14:54 20.52366 -81.06820 28247 ft 459 kts 351°
2026-04-23 14:54 20.55570 -81.06970 28543 ft 462 kts 351°
2026-04-23 14:54 20.58790 -81.07120 28865 ft 464 kts 351°
2026-04-23 14:55 20.62029 -81.07269 29168 ft 467 kts 351°
2026-04-23 14:55 20.65289 -81.07419 29460 ft 469 kts 351°
2026-04-23 14:55 20.68565 -81.07570 29753 ft 472 kts 351°
2026-04-23 14:55 20.70739 -81.07671 29933 ft 473 kts 351°
2026-04-23 14:56 20.74046 -81.07823 30196 ft 476 kts 351°
2026-04-23 14:56 20.77364 -81.07977 30474 ft 478 kts 351°
2026-04-23 14:56 20.80698 -81.08130 30757 ft 480 kts 351°
2026-04-23 14:56 20.84036 -81.08285 31084 ft 480 kts 351°
2026-04-23 14:57 20.88451 -81.08488 31627 ft 478 kts 350°
2026-04-23 14:57 20.90694 -81.08590 31911 ft 476 kts 350°
2026-04-23 14:57 20.94001 -81.08742 32327 ft 475 kts 350°
2026-04-23 14:57 20.97299 -81.08895 32701 ft 474 kts 350°
2026-04-23 14:58 21.00590 -81.09048 33026 ft 474 kts 349°
2026-04-23 14:58 21.03893 -81.09204 33336 ft 474 kts 349°
2026-04-23 14:58 21.07186 -81.09358 33685 ft 473 kts 349°
2026-04-23 14:58 21.10472 -81.09511 34025 ft 472 kts 349°
2026-04-23 14:59 21.13752 -81.09664 34350 ft 471 kts 349°
2026-04-23 14:59 21.17025 -81.09817 34641 ft 470 kts 348°
2026-04-23 14:59 21.20297 -81.09970 34881 ft 471 kts 348°
2026-04-23 14:59 21.23578 -81.10125 35125 ft 471 kts 348°
2026-04-23 15:00 21.26810 -81.10275 35413 ft 470 kts 348°
2026-04-23 15:00 21.30119 -81.10429 35677 ft 469 kts 348°
2026-04-23 15:00 21.33340 -81.10581 35860 ft 471 kts 348°
2026-04-23 15:00 21.36611 -81.10735 36066 ft 471 kts 348°
2026-04-23 15:01 21.39885 -81.10888 36332 ft 470 kts 348°
2026-04-23 15:01 21.43146 -81.11040 36574 ft 469 kts 348°
2026-04-23 15:01 21.46406 -81.11191 36811 ft 468 kts 348°
2026-04-23 15:01 21.49643 -81.11340 37138 ft 464 kts 348°
2026-04-23 15:02 21.56128 -81.11647 37105 ft 463 kts 347°
2026-04-23 15:02 21.62515 -81.11942 37098 ft 456 kts 347°
2026-04-23 15:03 21.68861 -81.12242 37078 ft 455 kts 347°
2026-04-23 15:03 21.75189 -81.12543 37066 ft 455 kts 347°
2026-04-23 15:04 21.81517 -81.12843 37078 ft 455 kts 347°
2026-04-23 15:04 21.87858 -81.13144 37071 ft 456 kts 347°
2026-04-23 15:05 21.94209 -81.13445 37082 ft 457 kts 347°
2026-04-23 15:05 22.00535 -81.13744 37073 ft 459 kts 347°
2026-04-23 15:06 22.06921 -81.14044 37081 ft 459 kts 347°
2026-04-23 15:06 22.13309 -81.14345 37071 ft 460 kts 347°
2026-04-23 15:07 22.19710 -81.14649 37084 ft 460 kts 347°
2026-04-23 15:07 22.26106 -81.14951 37081 ft 460 kts 347°
2026-04-23 15:08 22.32501 -81.15255 37076 ft 460 kts 347°
2026-04-23 15:09 22.42083 -81.15709 37073 ft 459 kts 347°
2026-04-23 15:09 22.48466 -81.16013 37097 ft 458 kts 347°
2026-04-23 15:10 22.53761 -81.16263 37072 ft 457 kts 347°
2026-04-23 15:10 22.61151 -81.16616 37076 ft 456 kts 347°
2026-04-23 15:11 22.67491 -81.16918 37070 ft 456 kts 347°
2026-04-23 15:11 22.73817 -81.17219 37076 ft 455 kts 347°
2026-04-23 15:12 22.80138 -81.17521 37066 ft 454 kts 347°
2026-04-23 15:12 22.86447 -81.17822 37076 ft 453 kts 347°
2026-04-23 15:13 22.92746 -81.18122 37077 ft 453 kts 347°
2026-04-23 15:13 22.99047 -81.18425 37076 ft 453 kts 347°
2026-04-23 15:14 23.05351 -81.18729 37068 ft 453 kts 347°
2026-04-23 15:14 23.11654 -81.19032 37081 ft 453 kts 347°
2026-04-23 15:15 23.17950 -81.19335 37071 ft 453 kts 347°
2026-04-23 15:15 23.24248 -81.19636 37076 ft 453 kts 347°
2026-04-23 15:16 23.30545 -81.19939 37092 ft 453 kts 347°
2026-04-23 15:16 23.36838 -81.20242 37073 ft 453 kts 347°
2026-04-23 15:17 23.43128 -81.20545 37098 ft 452 kts 347°
2026-04-23 15:17 23.49425 -81.20849 37072 ft 453 kts 347°
2026-04-23 15:18 23.55724 -81.21152 37093 ft 453 kts 347°
2026-04-23 15:18 23.62020 -81.21456 37076 ft 453 kts 347°
2026-04-23 15:19 23.68276 -81.21759 37100 ft 452 kts 347°
2026-04-23 15:19 23.74563 -81.22063 37083 ft 451 kts 347°
2026-04-23 15:20 23.79783 -81.22316 37102 ft 451 kts 347°
2026-04-23 15:20 23.87107 -81.22673 37095 ft 450 kts 347°
2026-04-23 15:21 23.93359 -81.22977 37105 ft 449 kts 347°
2026-04-23 15:21 23.99612 -81.23269 37097 ft 451 kts 348°
2026-04-23 15:22 24.05958 -81.22899 37120 ft 462 kts 358°
2026-04-23 15:22 24.12305 -81.21763 37117 ft 465 kts
2026-04-23 15:23 24.18686 -81.20638 37103 ft 463 kts 359°
2026-04-23 15:23 24.25060 -81.19676 37116 ft 461 kts 358°
2026-04-23 15:24 24.31431 -81.18774 37109 ft 461 kts 358°
2026-04-23 15:24 24.37805 -81.17865 37116 ft 462 kts 358°
2026-04-23 15:25 24.44175 -81.16945 37107 ft 462 kts 358°
2026-04-23 15:25 24.50547 -81.16022 37116 ft 461 kts 358°
2026-04-23 15:26 24.56909 -81.15159 37101 ft 458 kts 355°
2026-04-23 15:26 24.63035 -81.15659 37097 ft 426 kts 331°
2026-04-23 15:27 24.68532 -81.17951 37111 ft 424 kts 330°
2026-04-23 15:27 24.74179 -81.19877 37111 ft 430 kts 335°
2026-04-23 15:28 24.79971 -81.21598 37114 ft 431 kts 335°
2026-04-23 15:28 24.85749 -81.23362 37124 ft 431 kts 335°
2026-04-23 15:29 24.91516 -81.25184 37113 ft 431 kts 334°
2026-04-23 15:29 24.97286 -81.27031 37111 ft 432 kts 334°
2026-04-23 15:30 25.03059 -81.28887 37115 ft 432 kts 335°
2026-04-23 15:30 25.08828 -81.30742 37120 ft 432 kts 335°
2026-04-23 15:31 25.14557 -81.32584 37123 ft 431 kts 335°
2026-04-23 15:31 25.20327 -81.34440 37122 ft 431 kts 335°
2026-04-23 15:32 25.26082 -81.36293 37121 ft 431 kts 335°
2026-04-23 15:32 25.31833 -81.38147 37129 ft 430 kts 335°
2026-04-23 15:33 25.37576 -81.40001 37128 ft 429 kts 335°
2026-04-23 15:33 25.43310 -81.41855 37129 ft 429 kts 335°
2026-04-23 15:34 25.49043 -81.43708 37130 ft 429 kts 335°
2026-04-23 15:34 25.54764 -81.45560 37134 ft 428 kts 335°
2026-04-23 15:35 25.60480 -81.47413 37142 ft 428 kts 335°
2026-04-23 15:35 25.66200 -81.49268 37134 ft 428 kts 336°
2026-04-23 15:36 25.71887 -81.51115 37145 ft 428 kts 336°
2026-04-23 15:36 25.77607 -81.52977 37147 ft 429 kts 336°
2026-04-23 15:37 25.83337 -81.54841 37154 ft 429 kts 336°
2026-04-23 15:37 25.88145 -81.56406 37140 ft 430 kts 336°
2026-04-23 15:38 25.94819 -81.58581 37157 ft 430 kts 336°
2026-04-23 15:38 26.00574 -81.60459 37150 ft 431 kts 336°
2026-04-23 15:39 26.06331 -81.62340 37149 ft 431 kts 336°
2026-04-23 15:39 26.12092 -81.64224 37153 ft 431 kts 336°
2026-04-23 15:40 26.17850 -81.66109 37137 ft 431 kts 336°
2026-04-23 15:40 26.23603 -81.67994 37143 ft 430 kts 336°
2026-04-23 15:41 26.29334 -81.69874 37138 ft 429 kts 336°
2026-04-23 15:41 26.34091 -81.71435 37143 ft 428 kts 336°
2026-04-23 15:42 26.39818 -81.73319 37149 ft 428 kts 336°
2026-04-23 15:42 26.45543 -81.75203 37156 ft 429 kts 336°
2026-04-23 15:43 26.51341 -81.76856 37101 ft 439 kts 348°
2026-04-23 15:43 26.54408 -81.76977 37258 ft 442 kts 354°
2026-04-23 15:43 26.57500 -81.76817 37142 ft 448 kts 357°
2026-04-23 15:44 26.63720 -81.76296 37141 ft 448 kts 356°
2026-04-23 15:44 26.66829 -81.76102 37035 ft 449 kts 355°
2026-04-23 15:44 26.69974 -81.75987 36408 ft 454 kts 355°
2026-04-23 15:44 26.73122 -81.75891 35949 ft 450 kts 355°
2026-04-23 15:45 26.76239 -81.75781 35461 ft 447 kts 355°
2026-04-23 15:45 26.79296 -81.75651 35035 ft 443 kts 356°
2026-04-23 15:45 26.82365 -81.75503 34590 ft 440 kts 356°
2026-04-23 15:45 26.85408 -81.75346 34139 ft 436 kts 356°
2026-04-23 15:46 26.88431 -81.75187 33702 ft 433 kts 356°
2026-04-23 15:46 26.91427 -81.75030 33263 ft 430 kts 356°
2026-04-23 15:46 26.94408 -81.74875 32826 ft 427 kts 356°
2026-04-23 15:46 26.97362 -81.74723 32401 ft 423 kts 356°
2026-04-23 15:47 27.00294 -81.74572 31973 ft 420 kts 356°
2026-04-23 15:47 27.03205 -81.74419 31554 ft 417 kts 357°
2026-04-23 15:47 27.06082 -81.74243 31261 ft 411 kts 358°
2026-04-23 15:47 27.08925 -81.74055 30828 ft 409 kts 358°
2026-04-23 15:48 27.11762 -81.73865 30406 ft 406 kts 358°
2026-04-23 15:48 27.14570 -81.73679 30020 ft 403 kts 358°
2026-04-23 15:48 27.17361 -81.73496 29593 ft 400 kts 358°
2026-04-23 15:48 27.20126 -81.73317 29164 ft 396 kts 358°
2026-04-23 15:49 27.22876 -81.73139 28730 ft 393 kts 358°
2026-04-23 15:49 27.25595 -81.72983 28296 ft 389 kts 355°
2026-04-23 15:49 27.28233 -81.73174 27835 ft 380 kts 343°
2026-04-23 15:49 27.30714 -81.73995 27663 ft 365 kts 335°
2026-04-23 15:50 27.33097 -81.74965 27118 ft 365 kts 335°
2026-04-23 15:50 27.35492 -81.75861 26845 ft 360 kts 338°
2026-04-23 15:50 27.37912 -81.76629 26311 ft 362 kts 340°
2026-04-23 15:50 27.40332 -81.77362 25980 ft 357 kts 340°
2026-04-23 15:51 27.42730 -81.78105 25527 ft 356 kts 339°
2026-04-23 15:51 27.45101 -81.78865 25132 ft 353 kts 339°
2026-04-23 15:51 27.47452 -81.79638 24712 ft 351 kts 339°
2026-04-23 15:51 27.49787 -81.80417 24309 ft 349 kts 338°
2026-04-23 15:52 27.52105 -81.81197 23901 ft 346 kts 338°
2026-04-23 15:52 27.54405 -81.81973 23497 ft 344 kts 338°
2026-04-23 15:52 27.56692 -81.82746 23095 ft 342 kts 338°
2026-04-23 15:52 27.58963 -81.83512 22690 ft 340 kts 338°
2026-04-23 15:53 27.61221 -81.84273 22286 ft 338 kts 339°
2026-04-23 15:53 27.63478 -81.84989 21852 ft 338 kts 345°
2026-04-23 15:53 27.65853 -81.85144 21427 ft 344 kts 360°
2026-04-23 15:53 27.68195 -81.84693 21145 ft 344 kts 12°
2026-04-23 15:54 27.70462 -81.83756 20715 ft 346 kts 18°
2026-04-23 15:54 27.72665 -81.82708 20336 ft 343 kts 18°
2026-04-23 15:54 27.74848 -81.81706 19919 ft 342 kts 17°
2026-04-23 15:54 27.77070 -81.80787 19528 ft 339 kts 15°
2026-04-23 15:55 27.79291 -81.79896 19123 ft 338 kts 15°
2026-04-23 15:55 27.81495 -81.79003 18727 ft 336 kts 16°
2026-04-23 15:55 27.83693 -81.78097 18322 ft 335 kts 16°
2026-04-23 15:55 27.85873 -81.77186 17923 ft 333 kts 17°
2026-04-23 15:56 27.88036 -81.76274 17523 ft 331 kts 17°
2026-04-23 15:56 27.90214 -81.75356 16917 ft 336 kts 17°
2026-04-23 15:56 27.92419 -81.74536 16558 ft 331 kts 10°
2026-04-23 15:56 27.94670 -81.74049 16155 ft 327 kts
2026-04-23 15:57 27.96913 -81.73653 15770 ft 325 kts
2026-04-23 15:57 27.99136 -81.73231 15359 ft 323 kts
2026-04-23 15:57 28.01341 -81.72780 14983 ft 321 kts
2026-04-23 15:57 28.03499 -81.72140 14522 ft 323 kts 20°
2026-04-23 15:58 28.05407 -81.70808 14223 ft 321 kts 37°
2026-04-23 15:58 28.07106 -81.69202 13809 ft 320 kts 39°
2026-04-23 15:58 28.08810 -81.67584 13442 ft 317 kts 37°
2026-04-23 15:58 28.10553 -81.66066 13021 ft 316 kts 35°
2026-04-23 15:59 28.12314 -81.64591 12648 ft 313 kts 35°
2026-04-23 15:59 28.14062 -81.63124 12257 ft 312 kts 36°
2026-04-23 15:59 28.15796 -81.61657 11878 ft 310 kts 36°
2026-04-23 15:59 28.17514 -81.60189 11476 ft 308 kts 36°
2026-04-23 16:00 28.19220 -81.58724 11096 ft 306 kts 37°
2026-04-23 16:00 28.20889 -81.57287 10721 ft 304 kts 37°
2026-04-23 16:00 28.22569 -81.55838 10329 ft 303 kts 37°
2026-04-23 16:00 28.24222 -81.54410 10168 ft 293 kts 38°
2026-04-23 16:01 28.25707 -81.52902 10013 ft 283 kts 51°
2026-04-23 16:01 28.26807 -81.51093 9817 ft 275 kts 59°
2026-04-23 16:01 28.27815 -81.49263 9480 ft 274 kts 57°
2026-04-23 16:01 28.28918 -81.47509 9168 ft 272 kts 54°
2026-04-23 16:02 28.30043 -81.45795 8829 ft 270 kts 54°
2026-04-23 16:02 28.31168 -81.44093 8512 ft 269 kts 51°
2026-04-23 16:02 28.32664 -81.42871 8329 ft 264 kts 24°
2026-04-23 16:02 28.34392 -81.42361 8213 ft 257 kts
2026-04-23 16:03 28.36139 -81.42385 8160 ft 245 kts 359°
2026-04-23 16:03 28.37819 -81.42462 7981 ft 239 kts
2026-04-23 16:03 28.39480 -81.42466 7712 ft 238 kts
2026-04-23 16:03 28.41130 -81.42448 7454 ft 236 kts
2026-04-23 16:04 28.42772 -81.42434 7189 ft 235 kts
2026-04-23 16:04 28.44398 -81.42424 6927 ft 233 kts
2026-04-23 16:04 28.46007 -81.42420 6676 ft 229 kts
2026-04-23 16:04 28.47599 -81.42418 6411 ft 228 kts
2026-04-23 16:05 28.48650 -81.42417 6228 ft 228 kts
2026-04-23 16:05 28.50770 -81.42457 6058 ft 226 kts 359°
2026-04-23 16:05 28.52392 -81.42528 5688 ft 239 kts 359°
2026-04-23 16:05 28.54052 -81.42605 5383 ft 238 kts 359°
2026-04-23 16:06 28.55684 -81.42376 4986 ft 239 kts 26°
2026-04-23 16:06 28.57025 -81.41323 4777 ft 231 kts 47°
2026-04-23 16:06 28.57901 -81.39824 4522 ft 227 kts 64°
2026-04-23 16:06 28.58453 -81.38155 4264 ft 227 kts 78°
2026-04-23 16:07 28.58746 -81.36385 3988 ft 229 kts 81°
2026-04-23 16:07 28.59011 -81.34588 3627 ft 231 kts 81°
2026-04-23 16:07 28.59268 -81.32819 3285 ft 227 kts 83°
2026-04-23 16:07 28.59358 -81.31041 2923 ft 224 kts 94°
2026-04-23 16:08 28.58836 -81.29473 2794 ft 207 kts 135°
2026-04-23 16:08 28.57606 -81.28767 2677 ft 197 kts 168°
2026-04-23 16:08 28.56268 -81.28570 2408 ft 194 kts 172°
2026-04-23 16:08 28.54939 -81.28407 2170 ft 190 kts 174°
2026-04-23 16:09 28.53632 -81.28350 1901 ft 183 kts 177°
2026-04-23 16:09 28.52392 -81.28340 1672 ft 174 kts 177°
2026-04-23 16:09 28.51219 -81.28330 1455 ft 165 kts 177°
2026-04-23 16:09 28.50104 -81.28318 1260 ft 156 kts 177°
2026-04-23 16:10 28.49022 -81.28306 1033 ft 152 kts 177°
2026-04-23 16:10 28.48006 -81.28296 826 ft 142 kts 177°
2026-04-23 16:10 28.47019 -81.28285 667 ft 145 kts 179°
2026-04-23 16:10 28.45999 -81.28275 430 ft 147 kts 179°
2026-04-23 16:11 28.44995 -81.28264 272 ft 144 kts 179°
2026-04-23 16:11 28.43994 -81.28254 106 ft 140 kts 179°
2026-04-23 16:11 28.43384 -81.28248 100 ft 35 kts 179°
2026-04-23 16:11 28.43148 -81.28244 98 ft 33 kts 179°
2026-04-23 16:12 28.42927 -81.28241 102 ft 31 kts 179°
2026-04-23 16:12 28.42718 -81.28241 103 ft 29 kts 180°
2026-04-23 16:12 28.42546 -81.28310 107 ft 25 kts 230°
2026-04-23 16:12 28.42482 -81.28482 104 ft 23 kts 251°
2026-04-23 16:13 28.42429 -81.28652 103 ft 22 kts 250°
2026-04-23 16:13 28.42330 -81.28977 107 ft 21 kts 251°
2026-04-23 16:13 28.42291 -81.29134 106 ft 20 kts 261°
2026-04-23 16:14 28.42284 -81.29292 103 ft 20 kts 269°
2026-04-23 16:14 28.42282 -81.29447 101 ft 20 kts 269°
2026-04-23 16:14 28.42282 -81.29606 98 ft 20 kts 270°
2026-04-23 16:14 28.42362 -81.29700 100 ft 19 kts 357°
2026-04-23 16:15 28.42494 -81.29702 101 ft 19 kts 359°
2026-04-23 16:15 28.42597 -81.29757 101 ft 18 kts 279°
2026-04-23 16:15 28.42579 -81.29894 102 ft 17 kts 257°
2026-04-23 16:15 28.42577 -81.29942 102 ft 0 kts 273°
2026-04-23 16:16 28.42579 -81.29967 102 ft 4 kts 277°
2026-04-23 16:16 28.42581 -81.29981 102 ft 0 kts 278°
2026-04-23 16:17 28.42581 -81.29982 102 ft 0 kts 278°